Location: Buckland
(65.9785°N, 161.1281°W)
Time: 04:27:17
(UTC+00:00)

Transit 4A - Pass Details

Date: 02 December 2020
Orbit: 864 x 980 km, 66.8° (Epoch: 26 January)

Event Time Altitude Azimuth Distance (km) Brightness Sun altitude
Rises 23:51:14 0° 287° (WNW) 3,691 11.0 0.8°
Reaches altitude 10° 23:53:49 10° 287° (WNW) 2,743 10.4 0.7°
Maximum altitude 00:00:16 86° 202° (SSW) 989 8.2 0.5°
Drops below altitude 10° 00:06:39 10° 113° (ESE) 2,705 10.4 0.3°
Sets 00:09:10 0° 113° (ESE) 3,637 11.0 0.2°
